Aérodrome :
LOGIN :

S'inscrire | Disclaimer

   EN    FR    IT 

 










Légende :    VFR   VFR Marginal   IFR   IFR Intensif   IFR Très Intensif
Visi : 
Plafond : 
>= 8 km
>= 3000ft
5 à 8 km
1000 à 3000 ft
1500m à 5 km
500 à 1000 ft
800 à 1500m
200 à 500 ft
< 800m
< 200 ft
Symboles :   Orages  Brouillard  Fortes neiges  Fortes précipitations  Vent > 20 kt
SIGMETs :   Divers  Orages  Givrage  Turbulence  Onde Orograph.  Cendres Volcan.







- Altitude de l'aérodrome : 885 ft
- Code IATA : BAS
- Voir les cartes d'approche


LFSB - Bale-Mulhouse

DERNIER METAR :
  • 211700Z 05004KT CAVOK 18/08 Q1019 NOSIG

METARs EXPIRÉS :
  • 211630Z 06004KT CAVOK 19/06 Q1018 NOSIG
  • 211600Z 10006KT 060V130 CAVOK 20/05 Q1018 NOSIG
  • 211530Z 09005KT 030V140 CAVOK 20/06 Q1018 NOSIG
  • 211500Z 09005KT 030V140 CAVOK 20/07 Q1019 NOSIG
  • 211430Z 09005KT 050V150 CAVOK 20/06 Q1019 NOSIG

TAF TAF LFSB
Valide du 21 à 12h jusqu'au 22 à 12h UTC


211100Z 2112/2212 03006KT CAVOK
PROB40
TEMPO 2123/2206 3000 BCFG
Météo : +33 3 89 90 31 11
Pas de NOTAMs connus pour ce terrain.



MET'MAP, la Météo Aéronautique d'un coup d'oeil ! - Copyright ORBIFLY Décembre 2007 - Disclaimer

ORBIFLY MET'MAP TEAM :

Programmation & Développement : Alexandra Zaïnal
Conception & Développement : Baudouin d'Aumeries
Co-Programmation & Développement : Marc-Olivier Méhu
Soutien technique & logistique : Manuel Goepfert

Contact : metmap@orbifly.com




SOURCES & CREDITS :

   NOAA